Regional Weather Roundup
Issued by NWS

Home | Current Version | Previous Version | Graphics & Text | Print | Product List | Glossary On
Versions: 1 2 3 4 5 6 7 8 9 10 11 12 13 14 15 16 17 18 19 20 21 22 23 24 25 26 27 28 29 30 31 32 33 34 35 36 37 38 39 40 41 42 43 44 45 46 47 48 49 50
000
ASUS43 KIND 071009
RWRIN

WEATHER ROUNDUP FOR INDIANA
NATIONAL WEATHER SERVICE INDIANAPOLIS IN
500 AM EST SUN FEB 07 2016

NOTE: "FAIR" INDICATES FEW OR NO CLOUDS BELOW 12,000 FEET WITH NO
SIGNIFICANT WEATHER AND/OR OBSTRUCTIONS TO VISIBILITY.

* - STATION DOES NOT REPORT WEATHER SUCH AS PRECIPITATION OR FOG.

+ - STATION NOT QUALITY CONTROLLED BY THE NATIONAL WEATHER SERVICE.
    USE DATA WITH CAUTION...ESPECIALLY DEWPOINT AND RELATIVE
    HUMIDITY OBSERVATIONS.

INZ001>003-010>013-019-020-071100-
NORTHWEST INDIANA

CITY           SKY/WX    TMP DP  RH WIND       PRES   REMARKS
LA PORTE +     CLOUDY    34  32  92 S5        30.00F WCI  30
MICHIGAN CITY+ CLOUDY    36  30  80 S8        29.99F
MONTICELLO +   CLOUDY    33  23  67 S8        30.04F WCI  26
RENSSELAER +   CLOUDY    34  28  80 S9        30.02F WCI  26
VALPARAISO     CLOUDY    34  29  82 S7        29.99F WCI  28

$$

LMZ046-743>745-071100-
SOUTHERN LAKE MICHIGAN

STATION/POSITION TIME  TEMP    WIND        PRES    WAVE
                       AIR SEA DIR/SP/G            HT
                 (UTC) (F)     (DEG/KT/KT) (MB)    (FT)
BURNS HARBOR     0900   38     190/ 13/ 17 1016.6F
MICHIGAN CITY    0900   37     160/ 14/ 16   N/A

$$

INZ004-005-014>016-021>024-071100-
NORTH CENTRAL INDIANA

CITY           SKY/WX    TMP DP  RH WIND       PRES   REMARKS
GOSHEN         CLOUDY    34  26  72 SW10      30.01F WCI  26
LOGANSPORT +   PTCLDY    32  25  74 SW10      30.06F WCI  24
PERU/GRISSOM   CLEAR     33  26  75 SW12      30.04F WCI  25
ROCHESTER +    MOCLDY    36  25  64 SW8       30.04F
SOUTH BEND     CLOUDY    34  27  75 SW10      30.00F WCI  26
WARSAW +       PTCLDY    32  27  80 CALM      30.03F

$$

INZ006>009-017-018-025>027-071100-
NORTHEAST INDIANA

CITY           SKY/WX    TMP DP  RH WIND       PRES   REMARKS
AUBURN +       PTCLDY    32  27  80 S5        30.04F WCI  27
FORT WAYNE     PTCLDY    31  26  82 SW10      30.06F WCI  22
HUNTINGTON +   MOCLDY    35  22  60 SW9       30.05F WCI  27

$$

INZ028-029-035-036-043>045-051>053-071100-
WEST CENTRAL INDIANA

CITY           SKY/WX    TMP DP  RH WIND       PRES   REMARKS
GREENCASTLE +  CLEAR     34  19  55 SW5       30.10F WCI  30
LAFAYETTE      PTCLDY    34  24  67 CALM      30.06F
TERRE HAUTE    CLEAR     37  23  56 SW8       30.11F

$$

INZ030>032-037>040-046>048-054>057-064-065-071100-
CENTRAL INDIANA

CITY           SKY/WX    TMP DP  RH WIND       PRES   REMARKS
FISHERS *+     CLEAR     34  27  75 SW7       30.09F WCI  28
FRANKFORT +    PTCLDY    33  20  59 S8        30.08F WCI  26
GREENWOOD *+   CLEAR     36  27  69 SW6       30.10F
INDIANAPOLIS   CLEAR     35  23  61 SW12      30.09F WCI  27
-EAGLE CREEK   CLEAR     36  23  59 SW6       30.09F
KOKOMO *+        N/A     36  25  64 SW12      30.06F
MARION +       CLEAR     32  19  59 SW10      30.07F WCI  24
MT COMFORT *+  CLEAR     32  25  74 SW6       30.10F WCI  26
SHELBYVILLE    CLEAR     34  24  67 S8        30.10F WCI  27
ZIONSVILLE +   CLEAR     33  24  68 SW9       30.08F WCI  26

$$

INZ033-034-041-042-049-050-058-059-071100-
EAST CENTRAL INDIANA

CITY           SKY/WX    TMP DP  RH WIND       PRES   REMARKS
MUNCIE         CLEAR     38  23  55 SW8       30.07F

$$

INZ060-061-067>069-081>083-085>088-071100-
SOUTHWEST INDIANA

CITY           SKY/WX    TMP DP  RH WIND       PRES   REMARKS
EVANSVILLE     CLEAR     36  23  59 SW6       30.17F
HUNTINGBURG *+ CLEAR     34  21  60 S6        30.17F WCI  29
WASHINGTON +   CLEAR     37  22  56 SW9       30.14F

$$

INZ062-063-066-070>080-084-089>092-071100-
SOUTH CENTRAL AND SOUTHEAST INDIANA

CITY           SKY/WX    TMP DP  RH WIND       PRES   REMARKS
BEDFORD +      CLEAR     37  23  56 SW7       30.13F
BLOOMINGTON    CLEAR     38  23  55 SW9       30.12F
MADISON *+     CLEAR     28  27  93 CALM      30.16F
NORTH VERNON + CLEAR     32  23  69 CALM      30.14F
SEYMOUR +      CLEAR     37  21  52 CALM      30.14F

$$




USA.gov is the U.S. government's official web portal to all federal, state and local government web resources and services.